COSMOS 1275 DEB, 13476

Orbit data source: Space-Track

COSMOS 1275 DEB, 13476 is space debris in LEO originally from a launch on Thu, 04 Jun 1981 UTC launched from the Plesetsk Missile And Space Complex (PKMTR). Debris objects in space refer to the collection of defunct objects orbiting the Earth. Examples of debris include non-operational satellites, rocket bodies, and fragments generated from explosions, collisions, or faulty payload assembly.

Loading next visibility...
Identifier
13476, 1981-053FW
Orbit
LEO
Country
Flag of CISCIS
Related business
Manufacturer
Unknown
Mission
Spacecraft
Bus & Motor
Unknown
Mass
Unknown
Launch date (UTC)
1981-06-04 (45 years ago)
Launch vehicle
Unknown
Launch site
Plesetsk Missile And Space Complex (PKMTR)
Object type
Payload
Rocket body
Debris
Shape & HBR
Unknown shape, 0.1 m
Radar Cross Section
Medium (>0.1 m² and <1 m²)

Expand to show TLE details & history
Last TLE update: 19 hours ago

TLE from 19 hours ago
0 COSMOS 1275 DEB
1 13476U 81053FW  26193.60071823  .00000885  00000-0  54747-3 0  9997
2 13476  82.8021 136.6211 0048398 151.8912 330.0426 14.03687626232966
Epoch: 2026-07-12T14:25Z
TLE epoch observation values (Epoch: 2026-07-12T14:25:02.055Z)
Latitude
57.71724°
Longitude
158.39541°
Altitude
860.367 km
Speed
7.443 km/s
True Right ascension
20h 20m 36s
True Declination
57° 33' 50"
Sunlit
Object was in daylight at epoch
Visualization orbit readout
Latitude
Unknown
Longitude
Unknown
Altitude
Unknown
Speed
Unknown
Apparent Right ascension
Unknown
Apparent Declination
Unknown
Sunlit
N/A
Visualization observer readout
Local Sidereal Time
21:55:16
Azimuth
Unknown
Elevation
Unknown
Doppler factor
Unknown
Orbital elements
Apogee altitude
913.287 km
Perigee altitude
843.049 km
Semi-major axis
7,256.305 km
Eccentricity
0.00484
Inclination
82.8021°
RAAN
136.6211°
Arg. of periapsis
151.8912°
True anomaly
329.7642°
Mean anomaly
330.0426°
Eccentric anomaly
329.90355°
Mean motion
3.51132 °/min
Orbital period
102.53 mins
BSTAR
0.00054747
Loading maneuver chart data...
Computing Atmospheric mass density...
Loading historical data...
Loading historical data...
Loading historical data...
Loading historical data...
Loading historical data...
Loading historical data...
Loading historical data...

Documentation

Showing up to 5 results
|